Date String (YYYY-MM-DD hh:mm:ss) UTC,Instrument flags,Ambient pressure (hPa),Sample flow (lpm),Bypass flow (lpm),Sample temperature (°C),Ambient temperature (°C),ASC tube jacket temperature (°C),LED temperature (°C),Box temperature (°C),Sample RH (%),Span deviation,Mass concentration (μg/m³),Mass concentration (μg/m³),Mass concentration (μg/m³)
DateTimeUTC,F1_M11,P_M11,Q1_M11,Q2_M11,T1_M11,T2_M11,T3_M11,T4_M11,T5_M11,U1_M11,ZSPAN_M11,X0_M11,X2_M11,X1_M11
2022-05-05 08:00:00,,0825.1,4.99,0.00,25.6,24.8,00.0,34.5,27.4,23.5,-002.7,0010.32,0006.08,0005.46
2022-05-05 08:01:00,,0825.1,5.01,0.00,25.6,24.8,00.0,34.5,27.4,23.4,-002.7,0010.35,0006.09,0005.46
2022-05-05 08:02:00,,0825.1,5.00,0.00,25.6,24.8,00.0,34.5,27.4,23.4,-002.5,0010.51,0006.12,0005.47
2022-05-05 08:03:00,,0825.0,5.01,0.00,25.6,24.8,00.0,34.5,27.4,23.4,-002.7,0010.65,0006.20,0005.52
2022-05-05 08:04:00,,0825.0,5.01,0.00,25.6,24.8,00.0,34.5,27.4,23.2,-002.3,0010.63,0006.29,0005.58
2022-05-05 08:05:00,,0824.9,4.98,0.00,25.6,24.8,00.0,34.5,27.4,23.1,-002.1,0010.63,0006.38,0005.65
2022-05-05 08:06:00,,0824.9,5.00,0.00,25.6,24.8,00.0,34.5,27.4,23.1,-001.6,0010.70,0006.45,0005.71
2022-05-05 08:07:00,,0824.9,5.00,0.00,25.6,24.8,00.0,34.5,27.4,23.1,-001.2,0010.85,0006.53,0005.77
2022-05-05 08:08:00,,0824.9,5.00,0.00,25.6,24.7,00.0,34.5,27.4,23.1,-000.5,0010.81,0006.59,0005.83
2022-05-05 08:09:00,,0824.9,5.00,0.00,25.6,24.7,00.0,34.5,27.4,23.2,-000.5,0010.59,0006.65,0005.87
2022-05-05 08:10:00,,0824.9,5.02,0.00,25.6,24.7,00.0,34.5,27.4,23.3,-001.1,0010.45,0006.65,0005.89
2022-05-05 08:11:00,,0824.9,4.99,0.00,25.6,24.7,00.0,34.5,27.4,24.5,-001.3,0010.31,0006.61,0005.90
2022-05-05 08:12:00,,0824.9,5.01,0.00,25.6,24.7,00.0,34.5,27.4,25.2,-001.2,0010.46,0006.63,0005.92
2022-05-05 08:13:00,,0824.9,4.99,0.00,25.6,24.7,00.0,34.5,27.4,24.0,-001.2,0010.71,0006.66,0005.92
2022-05-05 08:14:00,,0824.9,5.01,0.00,25.6,24.7,00.0,34.5,27.4,23.7,-001.1,0011.25,0006.63,0005.91
2022-05-05 08:15:00,,0824.9,4.99,0.00,25.6,24.7,00.0,34.5,27.4,23.6,-000.9,0011.54,0006.59,0005.87
2022-05-05 08:16:00,,0824.9,5.01,0.00,25.5,24.7,00.0,34.5,27.4,23.6,-001.1,0011.58,0006.57,0005.84
2022-05-05 08:17:00,,0824.9,5.00,0.00,25.6,24.7,00.0,34.5,27.4,23.5,-001.6,0011.67,0006.54,0005.82
2022-05-05 08:18:00,,0824.9,5.00,0.00,25.6,24.7,00.0,34.5,27.4,23.5,0000.0,0011.78,0006.51,0005.78
2022-05-05 08:19:00,,0824.9,4.99,0.00,25.6,24.8,00.0,34.5,27.4,23.5,-001.6,0011.64,0006.46,0005.75
2022-05-05 08:20:00,,0824.8,5.01,0.00,25.6,24.8,00.0,34.5,27.4,23.4,-002.0,0011.65,0006.46,0005.74
2022-05-05 08:21:00,,0824.9,4.99,0.00,25.5,24.8,00.0,34.5,27.4,23.4,-001.7,0011.79,0006.49,0005.73
2022-05-05 08:22:00,,0824.9,5.01,0.00,25.5,24.8,00.0,34.5,27.4,23.4,-001.7,0011.88,0006.53,0005.75
2022-05-05 08:23:00,,0824.9,4.99,0.00,25.5,24.8,00.0,34.5,27.4,23.3,-001.5,0011.68,0006.50,0005.75
2022-05-05 08:24:00,,0824.9,5.01,0.00,25.5,24.8,00.0,34.5,27.4,23.2,-001.1,0011.44,0006.49,0005.77
2022-05-05 08:25:00,,0824.9,4.99,0.00,25.5,24.7,00.0,34.5,27.4,23.2,-000.7,0010.80,0006.49,0005.78
2022-05-05 08:26:00,,0824.8,5.00,0.00,25.5,24.7,00.0,34.5,27.4,23.2,-001.0,0010.54,0006.51,0005.79
2022-05-05 08:27:00,,0824.8,4.99,0.00,25.5,24.7,00.0,34.5,27.4,23.1,-001.0,0010.48,0006.51,0005.80
2022-05-05 08:28:00,,0824.8,5.02,0.00,25.5,24.7,00.0,34.5,27.4,23.1,-000.9,0010.38,0006.49,0005.77
2022-05-05 08:29:00,,0824.6,4.99,0.00,25.5,24.7,00.0,34.5,27.4,23.1,-000.7,0010.20,0006.50,0005.78
2022-05-05 08:30:00,,0824.6,5.01,0.00,25.5,24.7,00.0,34.5,27.3,23.1,-000.7,0010.25,0006.51,0005.77
2022-05-05 08:31:00,,0824.6,4.99,0.00,25.5,24.7,00.0,34.5,27.3,22.6,-000.4,0010.22,0006.50,0005.76
2022-05-05 08:32:00,,0824.6,5.00,0.00,25.5,24.7,00.0,34.5,27.3,22.3,0000.3,0010.17,0006.49,0005.78
2022-05-05 08:33:00,,0824.6,4.99,0.00,25.5,24.7,00.0,34.5,27.4,21.9,0000.6,0010.13,0006.47,0005.78
2022-05-05 08:34:00,,0824.6,5.01,0.00,25.5,24.7,00.0,34.5,27.3,21.7,0001.4,0010.28,0006.52,0005.79
2022-05-05 08:35:00,,0824.6,4.98,0.00,25.5,24.7,00.0,34.5,27.4,21.5,0001.7,0010.36,0006.55,0005.80
2022-05-05 08:36:00,,0824.6,5.02,0.00,25.5,24.7,00.0,34.5,27.3,21.6,0000.9,0010.42,0006.58,0005.83
2022-05-05 08:37:00,,0824.6,4.99,0.00,25.5,24.7,00.0,34.5,27.3,21.6,0000.5,0010.36,0006.60,0005.88
2022-05-05 08:38:00,,0824.6,5.01,0.00,25.5,24.7,00.0,34.5,27.3,21.5,0000.2,0010.32,0006.62,0005.92
2022-05-05 08:39:00,,0824.6,4.99,0.00,25.5,24.7,00.0,34.5,27.3,21.4,-000.0,0010.35,0006.66,0005.96
2022-05-05 08:40:00,,0824.6,5.01,0.00,25.5,24.7,00.0,34.5,27.3,21.5,-000.2,0010.43,0006.69,0005.97
2022-05-05 08:41:00,,0824.6,5.00,0.00,25.5,24.7,00.0,34.4,27.3,21.5,-000.2,0010.36,0006.66,0005.99
2022-05-05 08:42:00,,0824.6,5.00,0.00,25.5,24.6,00.0,34.4,27.3,21.4,0000.0,0010.35,0006.62,0005.99
2022-05-05 08:43:00,,0824.6,5.00,0.00,25.5,24.6,00.0,34.4,27.3,21.3,-000.5,0010.43,0006.58,0005.95
2022-05-05 08:44:00,,0824.6,4.99,0.00,25.4,24.6,00.0,34.4,27.2,21.2,-000.9,0010.39,0006.56,0005.93
2022-05-05 08:45:00,,0824.6,5.00,0.00,25.4,24.6,00.0,34.4,27.3,21.2,-001.4,0010.29,0006.52,0005.90
2022-05-05 08:46:00,,0824.6,4.99,0.00,25.4,24.6,00.0,34.4,27.2,21.1,-001.4,0010.28,0006.50,0005.88
2022-05-05 08:47:00,,0824.6,5.01,0.00,25.4,24.6,00.0,34.4,27.3,21.1,-001.0,0010.25,0006.46,0005.83
2022-05-05 08:48:00,,0824.6,5.00,0.00,25.4,24.6,00.0,34.4,27.3,21.1,-000.6,0010.22,0006.39,0005.76
2022-05-05 08:49:00,,0824.6,5.00,0.00,25.4,24.6,00.0,34.4,27.2,21.2,-000.1,0010.18,0006.34,0005.68
2022-05-05 08:50:00,,0824.6,5.01,0.00,25.4,24.6,00.0,34.4,27.2,21.1,0001.3,0010.16,0006.30,0005.63
2022-05-05 08:51:00,,0824.5,4.99,0.00,25.4,24.6,00.0,34.4,27.2,21.2,0001.1,0010.02,0006.23,0005.57
2022-05-05 08:52:00,,0824.6,5.01,0.00,25.4,24.5,00.0,34.4,27.2,21.2,0001.3,0010.04,0006.21,0005.53
2022-05-05 08:53:00,,0824.6,4.99,0.00,25.4,24.5,00.0,34.4,27.2,21.1,0000.8,0010.03,0006.20,0005.52
2022-05-05 08:54:00,,0824.6,5.01,0.00,25.4,24.5,00.0,34.4,27.2,21.0,0001.1,0009.88,0006.23,0005.53
2022-05-05 08:55:00,,0824.6,4.99,0.00,25.4,24.5,00.0,34.4,27.2,20.9,0001.5,0009.86,0006.20,0005.51
2022-05-05 08:56:00,,0824.6,5.00,0.00,25.4,24.5,00.0,34.4,27.2,20.9,0002.0,0009.82,0006.17,0005.48
2022-05-05 08:57:00,,0824.6,5.01,0.00,25.4,24.5,00.0,34.4,27.2,20.8,0002.1,0009.82,0006.17,0005.47
2022-05-05 08:58:00,,0824.6,4.99,0.00,25.4,24.5,00.0,34.4,27.2,20.7,0002.0,0009.79,0006.15,0005.43
2022-05-05 08:59:00,,0824.6,5.01,0.00,25.4,24.5,00.0,34.4,27.2,20.6,0002.0,0009.87,0006.18,0005.41
